C/2007 G1 ( LINEAR )

Japanese version
Home page
Total 6,336 html files since Dec. 4, 1995
Updated on October 15, 2008

---------------------------------------------------------------------

* Profile

Discovery Date April 10, 2007
Magnitude 18.6 mag
Discoverer Lincoln Laboratory Near-Earth Asteroid Research project

* Pictures

* Orbital Elements

The following orbital elements are taken from MPC 62270:

Epoch 2008 Nov. 30.0 TT = JDT 2454800.5
T 2008 Nov. 16.3150 TT                                  MPC
q   2.647148             (2000.0)            P               Q
z  -0.000653       Peri.  223.9830      -0.1175034      +0.1531395
 +/-0.000001       Node    78.9949      -0.3754557      +0.9078506
e   1.001729       Incl.   88.3309      -0.9193617      -0.3903274
From 1276 observations 2007 Apr. 10-2008 Mar. 9, mean residual 0".5.

* Finding Charts

* Magnitudes Graph

        m1 = 5.5 + 5 log d + 10.0 log r

---------------------------------------------------------------------

The orbital elements are published at the MPC Ephemerides and Orbital Elements.
The charts are made with StellaNavigator Ver.2.0 for Windows (AstroArts / ASCII).
The magnitudes graphs are made with Comet for Windows.

---------------------------------------------------------------------

Copyright(C) 1995-2008 Seiichi Yoshida (comet@aerith.net). All rights reserved.